When you browse on this site, cookies collect data to enhance your experience and personalize the content and advertising you see.
Visit our Privacy Policy to learn more. By continuing to use the site, you agree to this use of cookies and data.
  • In Latvia
  • List of Countries
  • For 7 days
  • Water Temperature
  • Weather Map
  • Weather Widgets
  • user-avatar
    Login

    Hourly Weather Hasselt

    Today, 10 December, Tuesday

    Time Temperature Precipitation Wind Pressure Humidity
    00:00 +3°C° 0 mm 3 mps 763 mmHg 84%
    01:00 +3°C° 0 mm 3 mps 764 mmHg 85%
    02:00 +2°C° 0 mm 3 mps 764 mmHg 87%
    03:00 +2°C° 0 mm 3 mps 764 mmHg 89%
    04:00 +2°C° 0 mm 3 mps 765 mmHg 90%
    05:00 +1°C° 0 mm 3 mps 765 mmHg 91%
    06:00 +1°C° 0 mm 3 mps 765 mmHg 93%
    07:00 +1°C° 0 mm 3 mps 765 mmHg 90%
    08:00 +1°C° 0 mm 4 mps 765 mmHg 88%
    09:00 +1°C° 0 mm 4 mps 765 mmHg 85%
    10:00 +2°C° 0 mm 5 mps 765 mmHg 79%
    11:00 +3°C° 0 mm 6 mps 764 mmHg 73%
    12:00 +4°C° 0 mm 7 mps 764 mmHg 66%
    13:00 +3°C° 0 mm 6 mps 763 mmHg 67%
    14:00 +3°C° 0 mm 6 mps 762 mmHg 68%
    15:00 +3°C° 0 mm 6 mps 761 mmHg 69%
    16:00 +3°C° 0 mm 7 mps 760 mmHg 68%
    17:00 +3°C° 0 mm 7 mps 760 mmHg 67%
    18:00 +1°C° 0 mm 8 mps 759 mmHg 66%
    19:00 +2°C° 0 mm 8 mps 758 mmHg 66%
    20:00 +2°C° 0 mm 9 mps 758 mmHg 65%
    21:00 +3°C° 0 mm 9 mps 757 mmHg 64%
    22:00 +3°C° 0 mm 9 mps 756 mmHg 66%
    23:00 +3°C° 0 mm 9 mps 756 mmHg 67%

    Tomorrow, 11 December, Wednesday

    Time Temperature Precipitation Wind Pressure Humidity
    00:00 +3°C° 0 mm 9 mps 755 mmHg 68%
    01:00 +3°C° 0 mm 9 mps 755 mmHg 72%
    02:00 +4°C° 0 mm 8 mps 754 mmHg 76%
    03:00 +4°C° 0 mm 7 mps 754 mmHg 80%
    04:00 +4°C° 0.3 mm 7 mps 754 mmHg 83%
    05:00 +3°C° 0.3 mm 6 mps 754 mmHg 85%
    06:00 +3°C° 0.3 mm 5 mps 754 mmHg 88%
    07:00 +4°C° 0.1 mm 4 mps 754 mmHg 88%
    08:00 +5°C° 0.1 mm 4 mps 753 mmHg 88%
    09:00 +5°C° 0.1 mm 3 mps 753 mmHg 88%
    10:00 +5°C° 0 mm 3 mps 753 mmHg 86%
    11:00 +5°C° 0 mm 3 mps 752 mmHg 83%
    12:00 +5°C° 0 mm 3 mps 752 mmHg 81%
    13:00 +5°C° 0 mm 3 mps 751 mmHg 82%
    14:00 +5°C° 0 mm 3 mps 751 mmHg 83%
    15:00 +5°C° 0 mm 3 mps 750 mmHg 84%
    16:00 +4°C° 0 mm 3 mps 750 mmHg 85%
    17:00 +4°C° 0 mm 4 mps 750 mmHg 86%
    18:00 +4°C° 0 mm 4 mps 750 mmHg 87%
    19:00 +4°C° 0 mm 4 mps 749 mmHg 86%
    20:00 +3°C° 0 mm 4 mps 749 mmHg 85%
    21:00 +2°C° 0 mm 5 mps 749 mmHg 84%
    22:00 +3°C° 0.1 mm 4 mps 749 mmHg 86%
    23:00 +3°C° 0.1 mm 3 mps 748 mmHg 87%

    Day after tomorrow, 12 December, Thursday

    Time Temperature Precipitation Wind Pressure Humidity
    00:00 +3°C° 0.1 mm 3 mps 748 mmHg 89%
    01:00 +3°C° 0.2 mm 3 mps 748 mmHg 88%
    02:00 +3°C° 0.2 mm 4 mps 748 mmHg 88%
    03:00 +3°C° 0.2 mm 4 mps 748 mmHg 87%
    04:00 +1°C° 0 mm 4 mps 748 mmHg 87%
    05:00 +1°C° 0 mm 4 mps 749 mmHg 87%
    06:00 0°C° 0 mm 4 mps 749 mmHg 87%
    07:00 0°C° 0 mm 4 mps 749 mmHg 87%
    08:00 0°C° 0 mm 4 mps 749 mmHg 86%
    09:00 0°C° 0 mm 4 mps 749 mmHg 86%
    10:00 +1°C° 0 mm 5 mps 749 mmHg 82%
    11:00 +2°C° 0 mm 5 mps 748 mmHg 78%
    12:00 +3°C° 0 mm 6 mps 748 mmHg 74%
    13:00 +3°C° 0 mm 6 mps 747 mmHg 76%
    14:00 +2°C° 0 mm 6 mps 745 mmHg 77%
    15:00 +2°C° 0 mm 6 mps 744 mmHg 78%
    16:00 +2°C° 0 mm 7 mps 743 mmHg 77%
    17:00 +2°C° 0 mm 7 mps 741 mmHg 76%
    18:00 0°C° 0 mm 7 mps 740 mmHg 75%
    19:00 +1°C° 0.1 mm 8 mps 738 mmHg 76%
    20:00 +1°C° 0.1 mm 9 mps 735 mmHg 78%
    21:00 +1°C° 0.1 mm 9 mps 733 mmHg 79%
    22:00 +2°C° 0.6 mm 10 mps 731 mmHg 81%
    23:00 +2°C° 0.6 mm 10 mps 729 mmHg 82%

    13 December, Friday

    Time Temperature Precipitation Wind Pressure Humidity
    00:00 +3°C° 0.6 mm 10 mps 726 mmHg 84%
    01:00 +3°C° 1.5 mm 10 mps 726 mmHg 85%
    02:00 +3°C° 1.5 mm 10 mps 725 mmHg 87%
    03:00 +5°C° 1.5 mm 9 mps 724 mmHg 89%
    04:00 +5°C° 0.4 mm 9 mps 724 mmHg 87%
    05:00 +4°C° 0.4 mm 8 mps 724 mmHg 85%
    06:00 +4°C° 0.4 mm 8 mps 724 mmHg 82%
    07:00 +4°C° 0.3 mm 7 mps 725 mmHg 85%
    08:00 +4°C° 0.3 mm 7 mps 725 mmHg 87%
    09:00 +3°C° 0.3 mm 7 mps 726 mmHg 90%
    10:00 +4°C° 0.9 mm 6 mps 726 mmHg 89%
    11:00 +4°C° 0.9 mm 6 mps 727 mmHg 87%
    12:00 +4°C° 0.9 mm 6 mps 728 mmHg 86%
    13:00 +4°C° 0.3 mm 6 mps 729 mmHg 84%
    14:00 +4°C° 0.3 mm 7 mps 730 mmHg 82%
    15:00 +4°C° 0.3 mm 7 mps 731 mmHg 80%
    16:00 +4°C° 0 mm 7 mps 732 mmHg 80%
    17:00 +4°C° 0 mm 7 mps 733 mmHg 80%
    18:00 +4°C° 0 mm 7 mps 734 mmHg 79%
    19:00 +4°C° 0 mm 6 mps 735 mmHg 80%
    20:00 +4°C° 0 mm 6 mps 736 mmHg 81%
    21:00 +5°C° 0 mm 6 mps 737 mmHg 82%
    22:00 +4°C° 0 mm 6 mps 738 mmHg 83%
    23:00 +4°C° 0 mm 6 mps 738 mmHg 84%

    14 December, Saturday

    Time Temperature Precipitation Wind Pressure Humidity
    00:00 +3°C° 0 mm 6 mps 739 mmHg 85%
    01:00 +4°C° 0 mm 7 mps 738 mmHg 84%
    02:00 +4°C° 0 mm 8 mps 737 mmHg 83%
    03:00 +4°C° 0 mm 8 mps 737 mmHg 83%
    04:00 +5°C° 0.3 mm 9 mps 737 mmHg 80%
    05:00 +6°C° 0.3 mm 9 mps 737 mmHg 77%
    06:00 +7°C° 0.3 mm 9 mps 736 mmHg 74%
    07:00 +6°C° 0.1 mm 9 mps 738 mmHg 72%
    08:00 +5°C° 0.1 mm 9 mps 739 mmHg 69%
    09:00 +5°C° 0.1 mm 9 mps 740 mmHg 67%
    10:00 +5°C° 0.1 mm 8 mps 740 mmHg 70%
    11:00 +5°C° 0.1 mm 8 mps 740 mmHg 74%
    12:00 +5°C° 0.1 mm 8 mps 740 mmHg 77%
    13:00 +5°C° 0.7 mm 9 mps 741 mmHg 75%
    14:00 +5°C° 0.7 mm 10 mps 741 mmHg 73%
    15:00 +6°C° 0.7 mm 10 mps 741 mmHg 71%
    16:00 +5°C° 0.1 mm 10 mps 742 mmHg 73%
    17:00 +3°C° 0.1 mm 9 mps 743 mmHg 74%
    18:00 +4°C° 0.1 mm 8 mps 744 mmHg 75%
    19:00 +2°C° 0 mm 8 mps 745 mmHg 75%
    20:00 +3°C° 0 mm 7 mps 746 mmHg 75%
    21:00 +3°C° 0 mm 7 mps 747 mmHg 74%
    22:00 +3°C° 0 mm 7 mps 747 mmHg 76%
    23:00 +3°C° 0 mm 7 mps 747 mmHg 78%

    15 December, Sunday

    Time Temperature Precipitation Wind Pressure Humidity
    00:00 +3°C° 0 mm 7 mps 747 mmHg 80%
    01:00 +3°C° 0 mm 6 mps 747 mmHg 81%
    02:00 +3°C° 0 mm 6 mps 746 mmHg 82%
    03:00 +3°C° 0 mm 6 mps 746 mmHg 84%
    04:00 +4°C° 0.3 mm 7 mps 745 mmHg 85%
    05:00 +5°C° 0.3 mm 7 mps 744 mmHg 86%
    06:00 +5°C° 0.3 mm 7 mps 743 mmHg 87%
    07:00 +5°C° 0.2 mm 8 mps 744 mmHg 81%
    08:00 +5°C° 0.2 mm 8 mps 745 mmHg 75%
    09:00 +5°C° 0.2 mm 8 mps 746 mmHg 69%
    10:00 +5°C° 0 mm 8 mps 746 mmHg 67%
    11:00 +6°C° 0 mm 8 mps 747 mmHg 66%
    12:00 +6°C° 0 mm 8 mps 747 mmHg 65%
    13:00 +6°C° 0 mm 7 mps 748 mmHg 67%
    14:00 +5°C° 0 mm 7 mps 748 mmHg 68%
    15:00 +5°C° 0 mm 6 mps 749 mmHg 70%
    16:00 +4°C° 0 mm 6 mps 749 mmHg 70%
    17:00 +4°C° 0 mm 6 mps 750 mmHg 71%
    18:00 +4°C° 0 mm 6 mps 750 mmHg 71%
    19:00 +4°C° 0 mm 6 mps 750 mmHg 72%
    20:00 +4°C° 0 mm 6 mps 751 mmHg 73%
    21:00 +4°C° 0 mm 6 mps 751 mmHg 73%
    22:00 +4°C° 0 mm 6 mps 751 mmHg 74%
    23:00 +5°C° 0 mm 5 mps 751 mmHg 76%
    Show more